Simultaneous Nadir Overpasses (SNOs) Predictions

Prediction of SNOs between GOES-15 and TERRA Satellite Orbit:

Table of predicted SNOs for the next 14.0 days since TLE Epoch: 3/12/2016
Index Date Time (GOES-15) GOES-15 Lat,Lon TERRA Lat,Lon Distance(km) Time Diff (sec)
1 03/13/2016 19:27:33 0.03,-134.67 -0.11,-134.01 74.47 80
2 03/15/2016 19:15:21 0.03,-134.58 -0.73,-131.05 401.53 80
3 03/16/2016 07:34:04 -0.03,-134.58 -0.40,-136.24 188.99 80
4 03/18/2016 07:24:32 -0.02,-134.49 0.21,-133.28 137.57 80
5 03/18/2016 19:43:07 0.02,-134.44 0.90,-138.43 453.78 80
6 03/20/2016 07:12:21 -0.03,-134.40 0.81,-130.31 463.83 80
7 03/20/2016 19:30:56 0.02,-134.35 0.24,-135.48 127.59 80
8 03/22/2016 19:21:24 0.03,-134.26 -0.34,-132.51 198.27 80
9 03/23/2016 07:40:08
